Location: Cambridge (historical)
(38.6883°N, 119.0140°W)
Time: 11:57:21
(UTC+00:00)

XW-2D - Pass Details

Date: 29 September 2021
Orbit: 503 x 524 km, 97.5° (Epoch: 18 October)

Event Time Altitude Azimuth Distance (km) Brightness Sun altitude
Rises 02:06:20 0° 206° (SSW) 2,641 ? -5.4°
Reaches altitude 10° 02:09:08 10° 229° (SW) 1,757 ? -6.0°
Maximum altitude 02:11:26 16° 267° (W) 1,443 ? -6.4°
Drops below altitude 10° 02:13:46 10° 305° (NW) 1,761 ? -6.9°
Sets 02:16:35 0° 328° (NNW) 2,651 ? -7.4°
